sat.trackr.live / text

‹ back to catalog

STARLINK-36500

NORAD 67320 · 2026-002R

PAYLOAD ACTIVE UNKNOWN

§ Identity

Operator
Country
US
Launch date
2026-01-04
Launch site
AFETR
Launch vehicle
Mass (kg)
RCS (m²)

Purposes: comms

External: N2YO · Heavens-Above · Gunter

§ Orbital elements

Epoch: 2026-05-24T23:48:08.584128Z

Period
94.27 min
Inclination
42.9986°
Eccentricity
0.0001394
Mean motion
15.27581736 rev/d
Perigee alt
482.1 km
Apogee alt
484.0 km
Semi-major
6,861.2 km
B*
5.2173e-4
RAAN
254.7588°
Arg perigee
277.6300°
Mean anomaly
82.4394°
Rev number
2,280

§ Raw data

STARLINK-365001 67320U 26002R   26144.99176602  .00014123  00000+0  52173-3 0  99962 67320  42.9986 254.7588 0001394 277.6300  82.4394 15.27581736 22806

JSON: /api/v1/satellites/67320 · /tle

For live sub-satellite position, see the globe view (requires WebGL).

§ Visibility from observer

Set your observer location to see the next 7 days of passes ≥ 10°. The values pass through the URL so the page stays shareable.

No JS? Fill the form by hand. The geolocation button needs JavaScript.